View Data : List Evapotranspiration (ETo ) Reports


 
Search Evapotranspiration Reports
Station Fields:
Location:
Date Range:
Start Date:   End Date:
Searched: Report date on 10/20/2017.
Showing 1 - 50 of 67 Records. <Back  Page   Next>
DateTimeStation NumberStation NameGaugeReadingRefill LevelEvap AmtView
10/20/2017  12:00 AM  MN-AA-5  East Bethel 3.1 NE 2.25  0.06   
10/20/2017  4:53 AM  MO-CP-7  Boonville 0.5 ESE 1.36  0.12   
10/20/2017  5:00 AM  NY-CQ-22  Fredonia 0.8 WNW 7.33  0.04   
10/20/2017  5:30 AM  AL-MD-25  Huntsville 4.4 ENE 4.45  0.05   
10/20/2017  5:30 AM  IN-TN-1  Atlanta 4.4 W 9.70  0.05   
10/20/2017  5:30 AM  TX-KN-4  Boerne 5.1 NNW 2.26  0.08   
10/20/2017  6:00 AM  CA-SJ-5  Lodi 1.0 NNW 7.37  0.06   
10/20/2017  6:00 AM  MD-MG-54  Germantown 4.6 NNE 6.59  0.07   
10/20/2017  6:00 AM  TX-ER-4  Stephenville 2.6 NNW 0.10  0.10   
10/20/2017  6:00 AM  WI-LN-2  Merrill 7.0 W 9.75  0.10   
10/20/2017  6:30 AM  IL-WN-2  Roscoe 1.6 ESE 6.60  0.10   
10/20/2017  6:30 AM  OH-DR-1  Bradford 2.3 NW 10.19  0.03   
10/20/2017  7:00 AM  AZ-MR-326  Phoenix 6.3 SSW 5.04  0.20   
10/20/2017  7:00 AM  AZ-PN-50  Saddlebrooke 1.5 SW 8.39  0.17   
10/20/2017  7:00 AM  CA-HM-5  Mckinleyville 7.3 ESE 10.16  0.02   
10/20/2017  7:00 AM  CA-SD-12  Poway 3.2NE 7.55  0.11   
10/20/2017  7:00 AM  CA-SD-132  Descanso 3.7N 0.30  0.10   
10/20/2017  7:00 AM  CA-TH-11  Red Bluff 5.1 NNW 9.00  0.10   
10/20/2017  7:00 AM  CO-LR-284  FCL 3.0 W 4.84  0.11   
10/20/2017  7:00 AM  FL-MR-66  The Villages 3.7 NNW 3.23  0.08   
10/20/2017  7:00 AM  GA-FY-28  Fayetteville 2.1 NNE 0.59  0.11   
10/20/2017  7:00 AM  IL-CP-1  Homer 2.0 N 6.58  0.09   
10/20/2017  7:00 AM  IL-GY-1  Carbon Hill 3.1 N 1.47  0.09   
10/20/2017  7:00 AM  IL-KN-67  St. Charles 6.0 NW 0.65  0.05   
10/20/2017  7:00 AM  IN-HR-5  Milltown 5.7 SSE 4.58  0.08   
10/20/2017  7:00 AM  IN-MR-13  Speedway 6.2 SSW 2.95  0.13   
10/20/2017  7:00 AM  IN-OW-9  Spencer 7.0 S 4.08  0.08   
10/20/2017  7:00 AM  IN-PT-133  Valparaiso 2.2 WNW 1.89  0.09   
10/20/2017  7:00 AM  IA-TY-2  New Market 4.7 N 0.83  0.10   
10/20/2017  7:00 AM  KS-CQ-2  Sedan 0.4 NE 5.83  0.11   
10/20/2017  7:00 AM  KS-SG-111  Wichita 5.9 WSW 2.55  0.12   
10/20/2017  7:00 AM  KY-FR-1  Frankfort 3.3 NE 8.88  0.08   
10/20/2017  7:00 AM  KY-ME-8  Harrodsburg 10.8 NW 5.00  0.06   
10/20/2017  7:00 AM  MD-HR-23  Norrisville 0.6 WSW 3.92  0.07   
10/20/2017  7:00 AM  MD-PG-49  Fort Washington 1.6 WSW 11.06  0.03   
10/20/2017  7:00 AM  MN-DK-53  Lakeville 3.8 ENE 7.22  0.11   
10/20/2017  7:00 AM  MO-SS-24  Wentzville 2.0 NNW 5.82  0.09   
10/20/2017  7:00 AM  MT-SW-2  Columbus 7.2 E 0.50  0.11   
10/20/2017  7:00 AM  NV-WH-2  Reno 1.4 NNE 8.05  0.11   
10/20/2017  7:00 AM  NH-MR-15  Dunbarton 0.3 N 7.59  0.18   
10/20/2017  7:00 AM  NM-BR-183  Sandia Park 3.6 ESE 7.80  0.10   
10/20/2017  7:00 AM  OH-CK-1  Springfield 1.1 NNW 2.66  0.06   
10/20/2017  7:00 AM  OH-PB-1  Eaton 1.0 N 2.73  0.04   
10/20/2017  7:00 AM  OK-NB-1  Billings 4.1 SSE 1.07  0.09   
10/20/2017  7:00 AM  OK-PY-9  Glencoe 3.0 W 9.42  0.09   
10/20/2017  7:00 AM  PA-MT-85  Skippack 2.6 ESE 6.93  0.00   
10/20/2017  7:00 AM  SC-CR-49  NWS Charleston SC 10.70  0.14   
10/20/2017  7:00 AM  TX-WT-15  Wichita Falls 7.2 WSW 5.58  0.15   
10/20/2017  7:00 AM  WA-TH-28  Olympia 7.0 NNE 2.19  0.00   
10/20/2017  7:00 AM  WA-WC-52  Bellingham 2.3 S 5.01  0.00